Weather in Ilyinka

Russia / Altai Krai     53°27′14″N   82°19′05″E
temp.,
°C
wind,
m/s
gust,
m/s
humid.,
%
clouds,
%
prec.,
mm/h
press.,
hPa
HPBL,
m
7 may, fri
fri701:00+20sw51243100 0.0 1001205
04:00+17wnw51260100 0.0 1004371
07:00+15wnw51067100 0.0 1007419
10:00+15nw5765100 0.0 1010611
13:00+18nw783699 0.0 10121635
16:00+18nw7929100 0.0 10141864
19:00+17wnw6833100 0.0 10161804
22:00+13wnw3944100 0.0 1018218
8 may, sat
sat801:00+10wnw37499 0.0 1019127
04:00+8wnw33570 0.0 102143
07:00+8wnw22600 0.0 102261
10:00+14w23370 0.0 1021575
13:00+18wnw35310 0.0 10201516
16:00+20wnw45315 0.0 10192024
19:00+20wnw46325 0.0 10182066
22:00+15w33460 0.0 101828
9 may, sun
sun901:00+13wsw33522 0.0 101834
04:00+12w33555 0.0 101832
07:00+12wnw2457100 0.0 101888
10:00+16nne33526 0.0 1018521
13:00+20nne344121 0.0 10171460
16:00+21n5534100 0.0 10161846
19:00+17nne664085 0.0 1017993
22:00+12ne4104793 0.0 1017297
10 may, mon
mon1001:00+10ene5124898 0.0 1017396
04:00+8ene5125649 0.0 1016353
07:00+7ene5136096 0.0 1016464
10:00+11ene7114687 0.0 1014793
13:00+14ene7832100 0.0 10121200
16:00+15ne793399 0.0 10111414
19:00+15ne793999 0.0 10101294
22:00+13ne6114797 0.0 1010572
11 may, tue
tue1101:00+10nne5105490 0.0 1009298
04:00+7nne386227 0.0 1009171
07:00+7nne48695 0.0 1010327
10:00+12nne455159 0.0 1011756
13:00+16nnw4539100 0.0 10111395
16:00+17nnw5537100 0.0 10111668
19:00+15nnw4543100 0.0 10121209
22:00+13wnw4647100 0.0 1013159